Overview Statistics Trail Chart Weather Telemetry Raw packets
 

This is the latest recevied weather packets stored in our database for station/object IZ5MMH-1. If no packets are shown the sender has not sent any weather packets the latest 10 day(s).

<< 1 2 3 4 5 6 >>
Time Temp. Humidity Pressure Rain* Wind** Luminosity Snow
1788538525 34.44° C 30% 1018.5 hPa - - - -
1788537926 35° C 29% 1018.5 hPa - - - -
1788537326 35° C 31% 1018.4 hPa - - - -
1788536746 35.56° C 31% 1018.5 hPa - - - -
1788536126 35.56° C 30% 1018.5 hPa - - - -
1788535527 35.56° C 30% 1018.5 hPa - - - -
1788534926 35.56° C 31% 1018.5 hPa - - - -
1788534326 35.56° C 29% 1018.5 hPa - - - -
1788533751 35.56° C 30% 1018.5 hPa - - - -
1788533125 36.11° C 29% 1018.5 hPa - - - -
1788532525 35.56° C 29% 1018.6 hPa - - - -
1788531926 36.11° C 29% 1018.5 hPa - - - -
1788531326 36.67° C 31% 1018.4 hPa - - - -
1788530726 36.11° C 30% 1018.5 hPa - - - -
1788530126 36.67° C 30% 1018.4 hPa - - - -
1788529526 36.67° C 27% 1018.4 hPa - - - -
1788528926 37.22° C 27% 1018.4 hPa - - - -
1788528326 37.22° C 28% 1018.6 hPa - - - -
1788527752 37.22° C 29% 1018.5 hPa - - - -
1788527125 37.22° C 30% 1018.7 hPa - - - -
1788526525 37.22° C 29% 1018.7 hPa - - - -
1788525926 37.22° C 28% 1018.9 hPa - - - -
1788525326 37.22° C 29% 1018.9 hPa - - - -
1788524726 37.22° C 29% 1018.9 hPa - - - -
1788524125 37.22° C 28% 1019.2 hPa - - - -

* Rain since midnight (hover to see other rain measurements)
** Current wind speed in m/s (hover to see current wind gust speed)